FW8589 Weather Reports


time (UTC)temp
C
wind
direction
speed
KPH
gust
KPH
rain 1hr
cm
rain 24hr
cm
rain mn
cm
humidity
%
barometer
mb
20260508060018 18 113 3.2 4.8 0.00 0.00 0.00 74 1011.7
20260508055017 18 0 3.2 6.4 0.00 0.00 0.00 73 1011.4
20260508054016 18 0 3.2 4.8 0.00 0.00 0.00 73 1011.3
20260508053016 18 0 3.2 4.8 0.00 0.00 0.00 72 1011.3
20260508052017 18 0 1.6 4.8 0.00 0.00 0.00 71 1011.2
20260508051446 18 0.0 0.0 0.00 0.00 0.00 71 1011.1
20260508050016 17 338 1.6 3.2 0.00 0.00 0.00 72 1011.1
20260508045016 17 338 3.2 6.4 0.00 0.00 0.00 75 1011.0
20260508044016 17 315 3.2 4.8 0.00 0.00 0.00 76 1010.9
20260508043016 17 135 4.8 4.8 0.00 0.00 0.00 76 1010.7
20260508042016 18 135 1.6 3.2 0.00 0.00 0.00 71 1010.7
20260508041016 18 135 1.6 4.8 0.00 0.00 0.00 68 1010.7
20260508040019 18 135 1.6 6.4 0.00 0.00 0.00 67 1010.6
20260508035015 18 90 1.6 4.8 0.00 0.00 0.00 69 1010.5
20260508034016 18 90 3.2 6.4 0.00 0.00 0.00 66 1010.5
20260508033015 18 90 6.4 9.7 0.00 0.00 0.00 65 1010.4
20260508032018 17 113 6.4 9.7 0.00 0.00 0.00 70 1010.4
20260508031017 17 113 6.4 9.7 0.00 0.00 0.00 73 1010.4
20260508030018 17 113 4.8 8.0 0.00 0.00 0.00 77 1010.5
20260508025444 17 23 1.6 3.2 0.00 0.00 0.00 77 1010.5
20260508024230 17 23 3.2 6.4 0.00 0.00 0.00 77 1010.5
20260508023232 17 0.0 0.0 0.00 0.00 0.00 77 1010.6
20260508022020 17 225 1.6 6.4 0.00 0.00 0.00 78 1010.7
20260508021017 17 270 4.8 6.4 0.00 0.00 0.00 77 1010.7
20260508020018 17 90 4.8 8.0 0.00 0.00 0.00 76 1010.8
20260508015018 18 270 3.2 6.4 0.00 0.00 0.00 75 1010.7
20260508014017 18 293 3.2 4.8 0.00 0.00 0.00 68 1010.7
20260508013018 18 315 1.6 4.8 0.00 0.00 0.00 69 1010.7
20260508012018 18 270 4.8 4.8 0.00 0.00 0.00 74 1010.7
20260508011018 18 0 3.2 8.0 0.00 0.03 0.00 71 1010.7
20260508010017 17 45 4.8 9.7 0.00 0.03 0.00 75 1010.9
20260508005018 17 0.0 1.6 0.00 0.03 0.00 79 1011.0
20260508004017 17 315 1.6 3.2 0.00 0.03 0.00 80 1011.1
20260508003018 17 315 1.6 6.4 0.00 0.03 0.00 82 1011.1
20260508002017 17 158 4.8 9.7 0.00 0.05 0.00 81 1011.3
20260508001017 17 293 4.8 6.4 0.00 0.15 0.00 81 1011.3
20260508000017 17 293 3.2 4.8 0.00 0.15 0.00 83 1011.5
20260507235017 16 293 3.2 4.8 0.00 0.15 0.00 85 1011.6
20260507234017 16 293 6.4 8.0 0.00 0.15 0.00 85 1011.8
20260507233022 17 293 4.8 8.0 0.00 0.15 0.00 84 1011.8
20260507232018 17 315 6.4 8.0 0.00 0.15 0.00 84 1011.9
20260507231018 17 315 8.0 14.5 0.00 0.15 0.00 84 1012.1
20260507230017 17 315 14.5 19.3 0.00 0.15 0.00 83 1012.2
20260507225017 17 315 12.9 17.7 0.00 0.15 0.00 83 1012.5
20260507224022 17 315 9.7 16.1 0.00 0.15 0.00 82 1012.8
20260507223017 17 315 9.7 16.1 0.00 0.25 0.00 82 1013.0
20260507222017 17 315 6.4 14.5 0.00 0.66 0.00 82 1013.1
20260507221444 17 315 6.4 11.3 0.00 1.02 0.00 82 1013.1
20260507220017 17 315 6.4 12.9 0.00 1.32 1.32 82 1013.2
20260507215016 17 315 6.4 12.9 0.00 1.45 1.32 82 1013.3
20260507214016 17 315 6.4 9.7 0.00 1.47 1.32 82 1013.3
20260507213017 17 315 11.3 16.1 0.00 1.47 1.32 82 1013.3
20260507212017 17 315 9.7 14.5 0.00 1.50 1.32 83 1013.5
20260507211016 17 315 8.0 12.9 0.00 1.50 1.32 83 1013.5
20260507210016 17 315 9.7 12.9 0.00 1.50 1.32 83 1013.4
20260507205016 17 315 6.4 12.9 0.00 1.50 1.32 83 1013.6
20260507204018 17 315 11.3 14.5 0.00 1.50 1.32 84 1013.5
20260507203016 17 315 11.3 16.1 0.00 1.52 1.32 84 1013.5
20260507202016 17 315 9.7 14.5 0.00 1.55 1.32 83 1013.5
20260507201016 17 315 9.7 12.9 0.00 1.55 1.32 82 1013.6
20260507200016 17 338 6.4 12.9 0.00 1.57 1.32 84 1013.4
20260507195229 17 338 9.7 14.5 0.00 1.57 1.32 84 1013.4
20260507194016 17 338 9.7 14.5 0.00 1.57 1.32 84 1013.4
20260507193016 17 338 8.0 12.9 0.00 1.57 1.32 86 1013.5
20260507192016 17 338 6.4 9.7 0.00 1.57 1.32 86 1013.5
20260507191016 17 315 6.4 9.7 0.00 1.57 1.32 86 1013.5
20260507190016 17 338 6.4 12.9 0.00 1.57 1.32 86 1013.4
20260507185443 17 315 9.7 16.1 0.00 1.57 1.32 85 1013.5
20260507184232 17 315 9.7 16.1 0.00 1.57 1.32 85 1013.5
20260507183016 18 315 8.0 14.5 0.00 1.60 1.32 85 1013.6
20260507182016 18 315 9.7 16.1 0.00 1.60 1.32 85 1013.6
20260507181016 18 315 9.7 17.7 0.00 1.63 1.32 84 1013.7
20260507180017 18 315 11.3 16.1 0.00 1.65 1.32 84 1013.6
20260507175230 18 315 14.5 19.3 0.00 1.65 1.32 83 1013.7
20260507174226 18 315 12.9 19.3 0.00 1.65 1.32 84 1013.7
20260507173017 18 293 9.7 16.1 0.00 1.65 1.32 85 1013.7
20260507172016 18 293 9.7 17.7 0.00 1.65 1.32 85 1013.5
20260507171016 18 293 14.5 20.9 0.00 1.65 1.32 86 1013.6
20260507170017 18 293 16.1 20.9 0.00 1.65 1.32 86 1013.5
20260507165018 18 293 19.3 24.1 0.00 1.65 1.32 85 1013.6
20260507164018 18 293 17.7 22.5 0.00 1.65 1.32 85 1013.5
20260507163019 18 293 17.7 24.1 0.00 1.65 1.32 85 1013.5
20260507162017 18 293 17.7 24.1 0.00 1.65 1.32 85 1013.6
20260507161017 18 293 16.1 22.5 0.00 1.65 1.32 85 1013.6
20260507160231 18 293 16.1 20.9 0.00 1.65 1.32 85 1013.5
20260507155017 18 293 17.7 22.5 0.00 1.65 1.32 83 1013.4
20260507154018 18 293 17.7 25.7 0.00 1.65 1.32 83 1013.3
20260507153017 18 293 17.7 25.7 0.00 1.65 1.32 84 1013.3
20260507152017 18 293 17.7 25.7 0.00 1.65 1.32 83 1013.5
20260507151017 18 293 19.3 27.4 0.00 1.65 1.32 85 1013.6
20260507150017 18 270 17.7 25.7 0.00 1.65 1.32 84 1013.7
20260507145017 18 293 19.3 25.7 0.00 1.65 1.32 84 1013.6
20260507144017 18 293 22.5 27.4 0.00 1.65 1.32 84 1013.9
20260507143017 18 293 19.3 25.7 0.00 1.65 1.32 83 1013.9
20260507142017 18 293 19.3 24.1 0.00 1.65 1.32 83 1013.9
20260507141019 18 293 16.1 22.5 0.00 1.65 1.32 81 1014.0
20260507140017 18 293 19.3 24.1 0.00 1.65 1.32 82 1014.2
20260507135017 19 293 14.5 22.5 0.00 1.65 1.32 81 1014.3
20260507134229 18 270 16.1 20.9 0.00 1.65 1.32 80 1014.5
20260507133229 18 293 16.1 20.9 0.00 1.65 1.32 80 1014.8
20260507132022 18 293 14.5 19.3 0.00 1.65 1.32 82 1014.9
20260507131441 18 293 11.3 17.7 0.00 1.65 1.32 80 1015.0
20260507130018 18 293 14.5 17.7 0.00 1.65 1.32 82 1015.2
20260507125017 18 293 14.5 19.3 0.00 1.65 1.32 84 1015.1
20260507124017 18 270 14.5 17.7 0.00 1.65 1.32 83 1015.2
20260507123018 18 270 12.9 17.7 0.00 1.65 1.32 84 1015.3
20260507122017 18 270 12.9 17.7 0.00 1.65 1.32 84 1015.4
20260507121018 18 270 9.7 16.1 0.00 1.65 1.32 83 1015.3
20260507120017 18 248 9.7 14.5 0.00 1.65 1.32 85 1015.3
20260507115017 18 248 11.3 16.1 0.00 1.65 1.32 86 1015.4
20260507114017 18 248 8.0 14.5 0.00 1.65 1.32 86 1015.4
20260507113016 18 248 8.0 12.9 0.00 1.65 1.32 85 1015.5
20260507112016 18 203 8.0 11.3 0.00 1.65 1.32 86 1015.5
20260507111016 18 225 9.7 14.5 0.00 1.65 1.32 86 1015.6
20260507110018 18 203 11.3 17.7 0.00 1.65 1.32 85 1015.7
20260507105017 18 180 12.9 17.7 0.00 1.65 1.32 85 1015.7
20260507104017 18 180 14.5 20.9 0.00 1.65 1.32 84 1015.6
20260507103226 18 180 12.9 17.7 0.00 1.65 1.32 83 1015.6
20260507102017 18 180 12.9 20.9 0.00 1.65 1.32 84 1015.5
20260507101228 18 180 14.5 22.5 0.00 1.65 1.32 82 1015.6
20260507100017 18 180 16.1 24.1 0.00 1.65 1.32 82 1015.5
20260507095017 18 180 14.5 22.5 0.00 1.65 1.32 83 1015.5
20260507094016 18 180 16.1 24.1 0.00 1.65 1.32 82 1015.5
20260507093017 19 203 11.3 19.3 0.00 1.65 1.32 81 1015.6
20260507092228 19 203 11.3 16.1 0.00 1.65 1.32 81 1015.7
20260507091018 18 203 12.9 17.7 0.00 1.65 1.32 80 1015.5
20260507090016 19 158 8.0 14.5 0.00 1.65 1.32 79 1015.7
20260507085016 19 180 6.4 11.3 0.00 1.65 1.32 80 1015.8
20260507084016 19 135 9.7 16.1 0.00 1.65 1.32 80 1015.7
20260507083016 18 113 4.8 12.9 0.00 1.65 1.32 81 1015.8
20260507082018 18 158 11.3 20.9 0.00 1.65 1.32 81 1015.7
20260507081016 18 135 12.9 19.3 0.00 1.65 1.32 81 1015.8
20260507080017 18 158 9.7 20.9 0.00 1.65 1.32 81 1015.9
20260507075017 18 135 9.7 16.1 0.00 1.65 1.32 82 1015.9
20260507074017 18 90 12.9 17.7 0.00 1.65 1.32 81 1015.9
20260507073017 17 113 11.3 17.7 0.00 1.65 1.32 81 1015.9
20260507072016 17 113 14.5 22.5 0.00 1.65 1.32 81 1015.9
20260507071016 17 90 14.5 20.9 0.00 1.65 1.32 82 1016.1
20260507070016 17 90 12.9 20.9 0.00 1.65 1.32 83 1015.9
20260507065233 17 113 14.5 20.9 0.00 1.65 1.32 84 1016.0
20260507064228 17 135 9.7 19.3 0.00 1.65 1.32 86 1015.8
20260507063016 16 90 12.9 19.3 0.00 1.65 1.32 86 1015.6
20260507062016 16 90 17.7 20.9 0.00 1.65 1.32 87 1015.6
20260507061016 16 90 14.5 22.5 0.00 1.65 1.32 89 1015.3